Pampa, TX

1:35 AM CST on December 08, 2016 (GMT -0600)
Perry Lefors

Weather History for KPPA - February, 2014

Change the Weather History Date:

Sunday, February 16, 2014

  Actual Average Record
Temperature  
Mean Temperature 48 °F -  
Max Temperature 65 °F 50 °F 78 °F (2011)
Min Temperature 31 °F 25 °F 7 °F (1979)
Degree Days  
Heating Degree Days 17    
Moisture  
Dew Point 30 °F    
Average Humidity 57    
Maximum Humidity 95    
Minimum Humidity 23    
Precipitation  
Precipitation 0.00 in - - ()
Sea Level Pressure  
Sea Level Pressure 29.95 in    
Wind  
Wind Speed 9 mph (South)    
Max Wind Speed 15 mph    
Max Gust Speed 24 mph    
Visibility 10 miles    
Events      
Averages and records for this station are not official NWS values.
T = Trace of Precipitation, MM = Missing Value Source: NWS Daily Summary

Daily Weather History Graph

Daily Weather History Graph

Search for Another Location

Airport or City:

Trip Planner

Search our weather history database for the weather conditions in past years. The results will help you decide how hot, cold, wet, or windy it might be!

Date:

Astronomy

Feb. 16, 2014 Rise Set
Actual Time 7:29 AM CST 6:27 PM CST
Civil Twilight 7:03 AM CST 6:53 PM CST
Nautical Twilight 6:33 AM CST 7:22 PM CST
Astronomical Twilight 6:04 AM CST 7:52 PM CST
Moon 8:19 PM CST (2/16) 8:05 AM CST (2/16)
Length of Visible Light 11h 49m
Length of Day
10h 57m
Full, 97% of the Moon is Illuminated
Feb 16
Full
Feb 22
Last Quarter
Mar 1
New
Mar 8
First Quarter
Mar 16
Full

Hourly Weather History & Observations

Time (CST) Temp. Windchill Dew Point Humidity Pressure Visibility Wind Dir Wind Speed Gust Speed Precip Events Conditions
12:15 AM 40.1 °F 33.6 °F 32.4 °F 74% 30.10 in 10.0 mi East 10.4 mph - N/A   Clear
12:35 AM 37.8 °F 31.8 °F 31.8 °F 79% 30.11 in 10.0 mi ENE 8.1 mph - N/A   Clear
12:55 AM 35.2 °F 28.1 °F 30.9 °F 84% 30.11 in 10.0 mi ENE 9.2 mph - N/A   Clear
1:15 AM 34.7 °F 27.5 °F 30.2 °F 84% 30.12 in 10.0 mi NE 9.2 mph - N/A   Clear
1:35 AM 33.8 °F 25.8 °F 30.0 °F 86% 30.11 in 10.0 mi NE 10.4 mph - N/A   Clear
1:55 AM 34.2 °F 26.2 °F 30.4 °F 86% 30.10 in 10.0 mi ENE 10.4 mph - N/A   Clear
2:15 AM 34.7 °F 28.1 °F 30.6 °F 85% 30.10 in 10.0 mi ENE 8.1 mph - N/A   Clear
2:35 AM 33.3 °F 26.4 °F 29.3 °F 85% 30.10 in 10.0 mi NE 8.1 mph - N/A   Clear
2:55 AM 34.5 °F 27.3 °F 30.2 °F 84% 30.08 in 10.0 mi ENE 9.2 mph - N/A   Clear
3:15 AM 33.8 °F 26.4 °F 29.3 °F 84% 30.08 in 10.0 mi ENE 9.2 mph - N/A   Clear
3:35 AM 33.1 °F 25.5 °F 29.1 °F 85% 30.07 in 10.0 mi ENE 9.2 mph - N/A   Clear
3:55 AM 32.5 °F 25.5 °F 28.8 °F 86% 30.06 in 10.0 mi ENE 8.1 mph - N/A   Clear
4:15 AM 33.8 °F 27.7 °F 29.5 °F 84% 30.06 in 10.0 mi ENE 6.9 mph - N/A   Clear
4:35 AM 34.2 °F 31.2 °F 30.0 °F 85% 30.06 in 10.0 mi NNE 3.5 mph - N/A   Clear
4:55 AM 31.6 °F 26.0 °F 27.9 °F 86% 30.06 in 10.0 mi WNW 5.8 mph - N/A   Clear
5:15 AM 31.6 °F - 28.9 °F 90% 30.05 in 10.0 mi Calm Calm - N/A   Clear
5:35 AM 32.0 °F - 29.8 °F 92% 30.03 in 10.0 mi Calm Calm - N/A   Clear
5:55 AM 31.1 °F - 28.4 °F 90% 30.04 in 10.0 mi Calm Calm - N/A   Clear
6:15 AM 32.4 °F - 30.4 °F 92% 30.03 in 10.0 mi Calm Calm - N/A   Clear
6:35 AM 33.8 °F 30.8 °F 31.3 °F 90% 30.03 in 10.0 mi WNW 3.5 mph - N/A   Clear
6:55 AM 33.1 °F 27.7 °F 31.1 °F 92% 30.04 in 10.0 mi NW 5.8 mph - N/A   Clear
7:15 AM 32.2 °F 26.7 °F 30.2 °F 92% 30.05 in 10.0 mi WNW 5.8 mph - N/A   Clear
7:35 AM 31.6 °F 27.0 °F 29.5 °F 92% 30.05 in 7.0 mi West 4.6 mph - N/A   Clear
7:55 AM 31.6 °F 25.1 °F 29.8 °F 93% 30.06 in 7.0 mi WNW 6.9 mph - N/A   Clear
8:15 AM 32.2 °F 27.7 °F 30.9 °F 95% 30.07 in 7.0 mi WNW 4.6 mph - N/A   Clear
8:35 AM 34.0 °F 29.8 °F 32.2 °F 93% 30.06 in 7.0 mi NW 4.6 mph - N/A   Clear
8:55 AM 35.4 °F 31.5 °F 32.7 °F 90% 30.06 in 10.0 mi West 4.6 mph - N/A   Clear
9:15 AM 37.4 °F 34.9 °F 33.6 °F 86% 30.05 in 10.0 mi West 3.5 mph - N/A   Clear
9:35 AM 39.7 °F 37.6 °F 34.3 °F 81% 30.06 in 10.0 mi West 3.5 mph - N/A   Clear
9:55 AM 42.4 °F - 34.3 °F 73% 30.05 in 10.0 mi Calm Calm - N/A   Clear
10:15 AM 47.1 °F - 32.2 °F 56% 30.04 in 10.0 mi SSE 9.2 mph - N/A   Clear
10:35 AM 49.1 °F - 31.3 °F 50% 30.03 in 10.0 mi SE 11.5 mph - N/A   Clear
10:55 AM 50.9 °F - 30.4 °F 45% 30.02 in 10.0 mi SSE 13.8 mph - N/A   Clear
11:15 AM 52.0 °F - 30.2 °F 43% 30.01 in 10.0 mi SE 12.7 mph - N/A   Clear
11:35 AM 53.6 °F - 30.2 °F 41% 30.01 in 10.0 mi SE 9.2 mph - N/A   Clear
11:55 AM 54.9 °F - 30.6 °F 40% 29.99 in 10.0 mi South 10.4 mph - N/A   Clear
12:15 PM 56.7 °F - 29.7 °F 36% 29.98 in 10.0 mi South 11.5 mph 16.1 mph N/A   Clear
12:35 PM 57.9 °F - 29.8 °F 34% 29.96 in 10.0 mi SSE 10.4 mph 18.4 mph N/A   Clear
12:55 PM 58.6 °F - 30.2 °F 34% 29.94 in 10.0 mi SSE 11.5 mph 18.4 mph N/A   Clear
1:15 PM 60.3 °F - 30.2 °F 32% 29.91 in 10.0 mi SSE 13.8 mph 19.6 mph N/A   Clear
1:35 PM 62.4 °F - 30.0 °F 30% 29.90 in 10.0 mi SSE 13.8 mph 24.2 mph N/A   Clear
1:55 PM 63.5 °F - 29.7 °F 28% 29.88 in 10.0 mi South 15.0 mph 19.6 mph N/A   Clear
2:15 PM 65.3 °F - 29.3 °F 26% 29.86 in 10.0 mi SSW 13.8 mph - N/A   Clear
2:35 PM 65.3 °F - 28.4 °F 25% 29.86 in 10.0 mi SSW 12.7 mph 21.9 mph N/A   Clear
2:55 PM 63.0 °F - 29.3 °F 28% 29.86 in 10.0 mi SSW 13.8 mph 19.6 mph N/A   Clear
3:15 PM 64.2 °F - 29.7 °F 27% 29.85 in 10.0 mi South 11.5 mph - N/A   Clear
3:35 PM 65.8 °F - 28.8 °F 25% 29.85 in 10.0 mi SW 11.5 mph - N/A   Clear
3:55 PM 65.5 °F - 28.4 °F 25% 29.83 in 10.0 mi SSW 10.4 mph - N/A   Clear
4:15 PM 65.5 °F - 29.3 °F 26% 29.82 in 10.0 mi South 11.5 mph 18.4 mph N/A   Clear
4:35 PM 65.5 °F - 29.3 °F 26% 29.81 in 10.0 mi South 13.8 mph - N/A   Clear
4:55 PM 63.7 °F - 29.8 °F 28% 29.80 in 10.0 mi South 9.2 mph - N/A   Clear
5:15 PM 62.8 °F - 29.3 °F 28% 29.80 in 10.0 mi South 12.7 mph - N/A   Clear
5:35 PM 61.7 °F - 29.8 °F 30% 29.81 in 10.0 mi SSE 10.4 mph - N/A   Clear
5:55 PM 60.4 °F - 30.2 °F 32% 29.81 in 10.0 mi SSE 9.2 mph - N/A   Clear
6:15 PM 58.6 °F - 30.2 °F 34% 29.81 in 10.0 mi SSE 10.4 mph - N/A   Clear
6:35 PM 56.7 °F - 30.0 °F 36% 29.81 in 10.0 mi SSE 11.5 mph - N/A   Clear
6:55 PM 53.8 °F - 30.6 °F 41% 29.80 in 10.0 mi SSE 10.4 mph - N/A   Clear
7:15 PM 53.6 °F - 30.9 °F 42% 29.80 in 10.0 mi SSE 6.9 mph - N/A   Clear
7:35 PM 52.9 °F - 31.1 °F 43% 29.80 in 10.0 mi South 10.4 mph - N/A   Clear
7:55 PM 52.5 °F - 31.8 °F 45% 29.81 in 10.0 mi South 11.5 mph - N/A   Clear
8:15 PM 52.3 °F - 31.8 °F 46% 29.80 in 10.0 mi South 13.8 mph - N/A   Clear
8:35 PM 52.0 °F - 32.0 °F 47% 29.80 in 10.0 mi South 15.0 mph 20.7 mph N/A   Clear
8:55 PM 50.4 °F - 32.0 °F 49% 29.80 in 10.0 mi South 9.2 mph - N/A   Clear
9:15 PM 50.4 °F - 32.0 °F 49% 29.79 in 10.0 mi South 13.8 mph - N/A   Clear
9:35 PM 48.0 °F - 31.1 °F 52% 29.80 in 10.0 mi SSW 10.4 mph - N/A   Clear
9:55 PM 46.4 °F 41.5 °F 30.0 °F 53% 29.80 in 10.0 mi SSW 10.4 mph - N/A   Clear
10:15 PM 54.9 °F - 22.1 °F 28% 29.80 in 10.0 mi SW 12.7 mph - N/A   Clear
10:35 PM 57.6 °F - 19.8 °F 23% 29.80 in 10.0 mi West 10.4 mph 16.1 mph N/A   Clear
10:55 PM 57.6 °F - 19.2 °F 23% 29.81 in 10.0 mi West 8.1 mph - N/A   Clear
11:15 PM 55.6 °F - 19.4 °F 24% 29.83 in 10.0 mi WNW 11.5 mph - N/A   Clear
11:35 PM 54.5 °F - 19.2 °F 25% 29.84 in 10.0 mi WNW 9.2 mph - N/A   Clear
11:55 PM 52.7 °F - 19.4 °F 27% 29.84 in 10.0 mi West 8.1 mph - N/A   Clear